Location: Czekanka
(50.4925°N, 19.2643°E)
Time: 07:01:03
(UTC+00:00)

SL-16 R/B - Pass Details

Date: 24 September 2024
Orbit: 842 x 846 km, 71.0° (Epoch: 05 October)

Event Time Altitude Azimuth Distance (km) Brightness Sun altitude
Rises 02:54:49 0° 329° (NNW) 3,412 5.2 -16.1°
Reaches altitude 10° 02:57:17 10° 326° (NNW) 2,472 4.5 -15.7°
Maximum altitude 03:02:54 67° 246° (WSW) 914 2.1 -14.9°
Drops below altitude 10° 03:08:29 10° 165° (SSE) 2,455 4.6 -14.0°
Sets 03:10:56 0° 162° (SSE) 3,386 5.4 -13.7°
